Find Starlink 4646

NORAD ID: 53737 Int'l Des: 2022-107 Owner: SPXS Country: US Constellation: starlink decayed
LEOCIRCULAR
Vis

Historical Track — Feb 10, 2026

Loading 3D Globe...

About Starlink 4646

Description loading...

Altitude History

Loading altitude history...

Two-Line Element Set

1 53737U 22107AP 26041.14741428 .06969066 11845-4 25007-2 0 9992
2 53737 53.1733 312.3279 0007259 205.0845 154.9845 16.24125071191492
Epoch: Feb 10, 2026 • Age: 2057 hours

Current Status

Position data unavailable
Launch Date Sep 5, 2022
Age 3.6 years
Decay Date Feb 10, 2026
Type internet

Technical Details

Classification Payload
Mass 305.00 kg
Dry Mass 290.00 kg
Total Mass 305.00 kg
Length 0.20 m
Diameter 2.80 m
Span 9.00 m
Shape Box + pan
Manufacturer SPXS
Bus Type Starlink
Phase Status Unknown Transfer Status
Owner/State SPXS/US

Most Searched